| time (UTC) | temp C | wind direction | speed KPH | gust KPH | rain 1hr cm | rain 24hr cm | rain mn cm | humidity % | barometer mb |
| 20260505124558 | 18 | 1 | 0.0 | 12.9 | 0.00 | 0.00 | 0.00 | 56 | 1006.7 |
| 20260505123104 | 18 | 51 | 0.0 | 12.9 | 0.00 | 0.00 | 0.00 | 58 | 1006.6 |
| 20260505121557 | 17 | 53 | 0.0 | 9.7 | 0.00 | 0.00 | 0.00 | 59 | 1006.7 |
| 20260505120055 | 17 | 132 | 0.0 | 3.2 | 0.00 | 0.00 | 0.00 | 59 | 1006.5 |
| 20260505114555 | 17 | 70 | 0.0 | 0.0 | 0.00 | 0.00 | 0.00 | 63 | 1006.6 |
| 20260505113109 | 18 | 293 | 0.0 | 0.0 | 0.00 | 0.00 | 0.00 | 58 | 1007.3 |
| 20260505111550 | 17 | 255 | 0.0 | 8.0 | 0.00 | 0.00 | 0.00 | 56 | 1006.8 |
| 20260505101545 | 17 | 310 | 0.0 | 4.8 | 0.00 | 0.00 | 0.00 | 57 | 1006.4 |
| 20260505100050 | 17 | 270 | 0.0 | 0.0 | 0.00 | 0.00 | 0.00 | 57 | 1006.2 |
| 20260505094545 | 16 | 328 | 0.0 | 1.6 | 0.00 | 0.00 | 0.00 | 57 | 1006.0 |
| 20260505093043 | 17 | 271 | 0.0 | 1.6 | 0.00 | 0.00 | 0.00 | 56 | 1006.0 |
| 20260505091555 | 17 | 293 | 0.0 | 1.6 | 0.00 | 0.00 | 0.00 | 55 | 1005.9 |
| 20260505090043 | 17 | 114 | 0.0 | 0.0 | 0.00 | 0.00 | 0.00 | 54 | 1005.7 |
| 20260505084540 | 17 | 268 | 0.0 | 9.7 | 0.00 | 0.00 | 0.00 | 53 | 1005.8 |
| 20260505083040 | 17 | 260 | 0.0 | 6.4 | 0.00 | 0.00 | 0.00 | 53 | 1005.7 |
| 20260505081539 | 17 | 284 | 0.0 | 14.5 | 0.00 | 0.00 | 0.00 | 52 | 1005.8 |
| 20260505080038 | 17 | 95 | 0.0 | 4.8 | 0.00 | 0.00 | 0.00 | 52 | 1005.9 |
| 20260505074536 | 17 | 271 | 0.0 | 12.9 | 0.00 | 0.00 | 0.00 | 52 | 1006.0 |
| 20260505073034 | 17 | 312 | 0.0 | 0.0 | 0.00 | 0.00 | 0.00 | 52 | 1006.0 |
| 20260505071532 | 17 | 262 | 0.0 | 9.7 | 0.00 | 0.00 | 0.00 | 51 | 1006.0 |
| 20260505070037 | 17 | 134 | 0.0 | 4.8 | 0.00 | 0.00 | 0.00 | 51 | 1006.0 |
| 20260505064529 | 17 | 259 | 0.0 | 11.3 | 0.00 | 0.00 | 0.00 | 51 | 1006.1 |
| 20260505063029 | 17 | 277 | 0.0 | 3.2 | 0.00 | 0.00 | 0.00 | 50 | 1006.0 |
| 20260505061538 | 17 | 276 | 0.0 | 12.9 | 0.00 | 0.00 | 0.00 | 50 | 1006.1 |
| 20260505060025 | 17 | 284 | 0.0 | 0.0 | 0.00 | 0.00 | 0.00 | 50 | 1006.1 |
| 20260505054524 | 17 | 186 | 0.0 | 11.3 | 0.00 | 0.00 | 0.00 | 50 | 1006.3 |
| 20260505053023 | 17 | 311 | 0.0 | 4.8 | 0.00 | 0.00 | 0.00 | 49 | 1006.4 |
| 20260505051538 | 17 | 293 | 0.0 | 3.2 | 0.00 | 0.00 | 0.00 | 49 | 1006.5 |
| 20260505041516 | 17 | 104 | 0.0 | 0.0 | 0.00 | 0.00 | 0.00 | 49 | 1006.4 |
| 20260505040015 | 17 | 275 | 0.0 | 0.0 | 0.00 | 0.00 | 0.00 | 48 | 1006.3 |
| 20260505034516 | 17 | 253 | 0.0 | 0.0 | 0.00 | 0.00 | 0.00 | 47 | 1006.3 |
| 20260505033013 | 18 | 305 | 0.0 | 3.2 | 0.00 | 0.00 | 0.00 | 46 | 1006.2 |
| 20260505031516 | 18 | 183 | 0.0 | 4.8 | 0.00 | 0.00 | 0.00 | 46 | 1006.2 |
| 20260505030011 | 18 | 93 | 0.0 | 14.5 | 0.00 | 0.00 | 0.00 | 45 | 1006.3 |
| 20260505024511 | 18 | 10 | 0.0 | 0.0 | 0.00 | 0.00 | 0.00 | 45 | 1006.5 |
| 20260505023010 | 18 | 292 | 0.0 | 14.5 | 0.00 | 0.00 | 0.00 | 44 | 1006.5 |
| 20260505021511 | 18 | 37 | 0.0 | 14.5 | 0.00 | 0.00 | 0.00 | 43 | 1006.6 |
| 20260505020009 | 18 | 275 | 0.0 | 0.0 | 0.00 | 0.00 | 0.00 | 42 | 1006.6 |
| 20260505014508 | 18 | 348 | 0.0 | 0.0 | 0.00 | 0.00 | 0.00 | 42 | 1006.6 |
| 20260505013007 | 19 | 281 | 0.0 | 1.6 | 0.00 | 0.00 | 0.00 | 41 | 1006.4 |
| 20260505011507 | 19 | 85 | 0.0 | 4.8 | 0.00 | 0.00 | 0.00 | 40 | 1006.4 |
| 20260505010006 | 19 | 229 | 0.0 | 3.2 | 0.00 | 0.00 | 0.00 | 40 | 1006.2 |
| 20260505004509 | 19 | 307 | 0.0 | 11.3 | 0.00 | 0.00 | 0.00 | 40 | 1006.0 |
| 20260505003017 | 20 | 277 | 0.0 | 12.9 | 0.00 | 0.00 | 0.00 | 39 | 1006.0 |
| 20260505001504 | 20 | 301 | 0.0 | 11.3 | 0.00 | 0.00 | 0.00 | 39 | 1005.9 |
| 20260505000005 | 20 | 102 | 0.0 | 1.6 | 0.00 | 0.00 | 0.00 | 38 | 1005.8 |
| 20260504234504 | 20 | 292 | 0.0 | 1.6 | 0.00 | 0.00 | 0.00 | 37 | 1005.7 |
| 20260504233003 | 21 | 266 | 0.0 | 11.3 | 0.00 | 0.00 | 0.00 | 36 | 1005.5 |
| 20260504231502 | 21 | 102 | 0.0 | 1.6 | 0.00 | 0.00 | 0.00 | 35 | 1005.5 |
| 20260504230002 | 21 | 272 | 0.0 | 8.0 | 0.00 | 0.00 | 0.00 | 34 | 1005.4 |
| 20260504224501 | 22 | 269 | 0.0 | 6.4 | 0.00 | 0.00 | 0.00 | 33 | 1005.3 |
| 20260504223100 | 22 | 321 | 1.6 | 17.7 | 0.00 | 0.00 | 0.00 | 33 | 1005.5 |
| 20260504221558 | 22 | 229 | 0.0 | 11.3 | 0.00 | 0.00 | 0.00 | 32 | 1005.3 |
| 20260504220057 | 22 | 293 | 0.0 | 17.7 | 0.00 | 0.00 | 0.00 | 32 | 1005.4 |
| 20260504214556 | 23 | 96 | 0.0 | 9.7 | 0.00 | 0.00 | 0.00 | 31 | 1005.5 |
| 20260504213053 | 22 | 280 | 0.0 | 9.7 | 0.00 | 0.00 | 0.00 | 32 | 1005.5 |
| 20260504211549 | 22 | 272 | 0.0 | 1.6 | 0.00 | 0.00 | 0.00 | 32 | 1005.6 |
| 20260504210104 | 22 | 176 | 1.6 | 17.7 | 0.00 | 0.00 | 0.00 | 32 | 1005.8 |
| 20260504204549 | 22 | 281 | 1.6 | 19.3 | 0.00 | 0.00 | 0.00 | 33 | 1006.1 |
| 20260504203055 | 22 | 281 | 0.0 | 16.1 | 0.00 | 0.00 | 0.00 | 34 | 1006.3 |
| 20260504201540 | 22 | 262 | 0.0 | 12.9 | 0.00 | 0.00 | 0.00 | 32 | 1006.4 |
| 20260504200037 | 21 | 264 | 0.0 | 19.3 | 0.00 | 0.00 | 0.00 | 33 | 1006.6 |
| 20260504194536 | 21 | 281 | 3.2 | 24.1 | 0.00 | 0.00 | 0.00 | 33 | 1006.8 |
| 20260504193033 | 21 | 277 | 0.0 | 16.1 | 0.00 | 0.00 | 0.00 | 34 | 1007.0 |
| 20260504191529 | 21 | 116 | 0.0 | 16.1 | 0.00 | 0.00 | 0.00 | 35 | 1007.1 |
| 20260504190029 | 21 | 316 | 3.2 | 12.9 | 0.00 | 0.00 | 0.00 | 34 | 1007.3 |
| 20260504184530 | 21 | 263 | 0.0 | 19.3 | 0.00 | 0.00 | 0.00 | 34 | 1007.5 |
| 20260504183031 | 21 | 109 | 1.6 | 12.9 | 0.00 | 0.00 | 0.00 | 35 | 1007.5 |
| 20260504181524 | 21 | 73 | 3.2 | 20.9 | 0.00 | 0.00 | 0.00 | 35 | 1007.6 |
| 20260504180023 | 21 | 265 | 1.6 | 17.7 | 0.00 | 0.00 | 0.00 | 35 | 1007.7 |
| 20260504174520 | 21 | 290 | 1.6 | 11.3 | 0.00 | 0.00 | 0.00 | 35 | 1008.0 |
| 20260504173018 | 20 | 117 | 4.8 | 19.3 | 0.00 | 0.00 | 0.00 | 35 | 1008.1 |
| 20260504171516 | 20 | 298 | 1.6 | 19.3 | 0.00 | 0.00 | 0.00 | 35 | 1008.2 |